This demonstration page uses our WeatherBlox Daily Observations layout. Learn more.

Left ArrowRight Arrow

38.88101, -77.10428

Hourly Observations for June 27, 2021

Temp ( °F °C ) Dew Point ( °F °C ) Humidity (%) Winds ( mph kmh ) Pressure ( in mb ) Visibility ( mi km ) Precip ( " mm )
12:52 am 00:52 Mostly Cloudy 77 25 69 20.6 77 77 S 12 19 30.17 1022 10 16 N/A
1:52 am 01:52 Mostly Cloudy 76 24.4 69 20.6 79 79 S 10 17 30.17 1022 10 16 N/A
2:52 am 02:52 Mostly Cloudy 75 23.9 69 20.6 82 82 S 10 17 30.17 1022 10 16 N/A
3:52 am 03:52 Mostly Cloudy 74 23.3 69 20.6 85 85 S 8 13 30.16 1021 10 16 N/A
4:52 am 04:52 Mostly Cloudy 74 23.3 70 21.1 88 88 S 12 19 30.16 1022 10 16 N/A
5:43 am 05:43 Mostly Cloudy 74 23.3 70 21.1 88 88 S 10 17 30.17 1022 10 16 N/A
5:52 am 05:52 Mostly Cloudy 74 23.3 70 21.1 88 88 S 12 19 30.17 1022 10 16 N/A
5:58 am 05:58 Mostly Cloudy 74 23.3 70 21.1 88 88 S 15 24 30.17 1022 10 16 N/A
6:23 am 06:23 Mostly Cloudy 74 23.3 70 21.1 88 88 S 12 19 30.18 1022 10 16 N/A
6:52 am 06:52 Cloudy 75 23.9 71 21.7 88 88 S 10 17 30.19 1022 10 16 N/A
7:52 am 07:52 Cloudy 77 25 71 21.7 82 82 S 9 15 30.19 1022 10 16 N/A
8:52 am 08:52 Mostly Cloudy 78 25.6 71 21.7 79 79 SSW 10 17 30.20 1023 10 16 N/A
9:48 am 09:48 Cloudy 81 27 72 22 74 74 SSW 10 17 30.21 1023 10 16 N/A
9:52 am 09:52 Cloudy 80 26.7 71 21.7 74 74 SSW 13 20 30.21 1023 10 16 N/A
10:52 am 10:52 Mostly Cloudy 83 28.3 72 22.2 70 70 S 12 19 30.21 1023 10 16 N/A
11:16 am 11:16 Partly Cloudy 83 28.3 72 22.2 70 70 S 12 19 30.21 1023 10 16 N/A
11:23 am 11:23 Mostly Cloudy 83 28.3 73 22.8 72 72 S 13 20 30.21 1023 10 16 N/A
11:52 am 11:52 Mostly Cloudy 84 28.9 72 22.2 67 67 S 12 19 30.20 1023 10 16 N/A
12:29 pm 12:29 Mostly Cloudy 86 30 72 22.2 63 63 S 14 22 30.20 1023 10 16 N/A
12:52 pm 12:52 Mostly Cloudy 85 29.4 73 22.8 68 68 S 12 19 30.19 1023 10 16 N/A
1:52 pm 13:52 Mostly Cloudy 88 31.1 72 22.2 59 59 S 16 26 30.18 1022 10 16 N/A
2:52 pm 14:52 Partly Cloudy 88 31.1 72 22.2 59 59 S 14 22 30.17 1022 10 16 N/A
3:52 pm 15:52 Partly Cloudy 87 30.6 73 22.8 63 63 S 18 30 30.16 1021 10 16 N/A
4:52 pm 16:52 Mostly Cloudy 87 30.6 72 22.2 61 61 S 14 22 30.15 1021 10 16 N/A
5:52 pm 17:52 Mostly Cloudy 88 31.1 73 22.8 61 61 S 12 19 30.16 1021 10 16 N/A
6:52 pm 18:52 Mostly Cloudy 86 30 71 21.7 61 61 S 13 20 30.16 1021 10 16 N/A
7:52 pm 19:52 Mostly Cloudy 85 29.4 70 21.1 61 61 S 13 20 30.16 1021 10 16 N/A
8:52 pm 20:52 Mostly Cloudy 82 27.8 71 21.7 69 69 S 8 13 30.16 1021 10 16 N/A
9:52 pm 21:52 Partly Cloudy 82 27.8 71 21.7 69 69 S 9 15 30.18 1022 10 16 N/A
10:52 pm 22:52 Partly Cloudy 82 27.8 72 22.2 72 72 S 12 19 30.18 1022 10 16 N/A
11:52 pm 23:52 Mostly Cloudy 80 26.7 72 22.2 76 76 S 9 15 30.19 1022 10 16 N/A

Powered by AerisWeather